K9NRG Weather Reports


time (UTC)temp
C
wind
direction
speed
KPH
gust
KPH
rain 1hr
cm
rain 24hr
cm
rain mn
cm
humidity
%
barometer
mb
20260505153003 8 78 3.2 4.8 0.00 0.00 0.00 39 1001.4
20260505152003 8 260 0.0 1.6 0.00 0.00 0.00 42 1001.5
20260505151003 8 260 0.0 0.0 0.00 0.00 0.00 43 1001.7
20260505124003 5 256 0.0 0.0 0.00 0.00 0.00 43 1001.7
20260505123003 5 256 0.0 0.0 0.00 0.00 0.00 42 1001.5
20260505121003 6 255 0.0 0.0 0.00 0.00 0.00 41 1001.4
20260505115003 6 255 0.0 0.0 0.00 0.00 0.00 38 1001.0
20260505114003 6 256 0.0 1.6 0.00 0.00 0.00 38 1000.8
20260505113003 6 256 0.0 0.0 0.00 0.00 0.00 36 1000.8
20260505112003 6 256 0.0 0.0 0.00 0.00 0.00 35 1000.8
20260505111003 7 256 0.0 3.2 0.00 0.00 0.00 35 1000.4
20260505101004 7 358 0.0 0.0 0.00 0.00 0.00 30 1000.2
20260505094004 7 169 0.0 4.8 0.00 0.00 0.00 29 999.1
20260505092004 7 168 1.6 4.8 0.00 0.00 0.00 28 999.1
20260505091004 7 192 0.0 4.8 0.00 0.00 0.00 28 999.2
20260505090003 7 202 0.0 4.8 0.00 0.00 0.00 28 999.2
20260505085004 8 217 0.0 11.3 0.00 0.00 0.00 28 999.5
20260505084004 8 208 0.0 12.9 0.00 0.00 0.00 28 999.5
20260505083003 8 145 0.0 11.3 0.00 0.00 0.00 28 999.2
20260505082003 8 148 0.0 0.0 0.00 0.00 0.00 27 999.8
20260505081004 8 148 0.0 4.8 0.00 0.00 0.00 29 999.9
20260505080003 7 123 0.0 4.8 0.00 0.00 0.00 29 999.7
20260505074004 6 347 0.0 3.2 0.00 0.00 0.00 40 1001.0
20260505072004 6 0 0.0 4.8 0.00 0.00 0.00 50 1001.0
20260505070004 6 0 1.6 4.8 0.00 0.00 0.00 47 1000.8
20260505065003 7 246 1.6 4.8 0.00 0.00 0.00 42 999.8
20260505064003 7 191 0.0 9.7 0.00 0.00 0.00 38 999.7
20260505063003 7 130 0.0 0.0 0.00 0.00 0.00 42 1000.4
20260505061003 7 130 0.0 0.0 0.00 0.00 0.00 38 1000.1
20260505060004 7 130 0.0 0.0 0.00 0.00 0.00 37 999.7
20260505055004 7 130 0.0 0.0 0.00 0.00 0.00 37 1000.0
20260505054004 7 130 0.0 0.0 0.00 0.00 0.00 36 1000.2
20260505053004 7 130 0.0 0.0 0.00 0.00 0.00 36 1000.0
20260505052004 7 130 0.0 0.0 0.00 0.00 0.00 36 1000.0
20260505051004 8 130 0.0 0.0 0.00 0.00 0.00 35 1000.4
20260505041003 9 130 0.0 0.0 0.00 0.00 0.00 32 1000.6
20260505040004 9 130 0.0 0.0 0.00 0.00 0.00 32 1000.6
20260505035004 9 130 0.0 0.0 0.00 0.00 0.00 30 1001.7
20260505034003 9 130 0.0 0.0 0.00 0.00 0.00 31 1001.5
20260505033003 10 130 0.0 0.0 0.00 0.00 0.00 31 1000.9
20260505030004 10 130 0.0 0.0 0.00 0.00 0.00 30 1000.6
20260505024003 10 130 0.0 0.0 0.00 0.00 0.00 30 1001.1
20260505022004 11 130 0.0 0.0 0.00 0.00 0.00 28 1000.5
20260505021003 11 130 0.0 0.0 0.00 0.00 0.00 27 1000.4
20260505020004 12 130 0.0 0.0 0.00 0.00 0.00 27 999.8
20260505015004 12 130 0.0 0.0 0.00 0.00 0.00 25 1001.0
20260505014004 13 130 0.0 0.0 0.00 0.00 0.00 27 1000.8
20260505013004 13 130 0.0 1.6 0.00 0.00 0.00 26 1000.9
20260505012003 13 130 0.0 0.0 0.00 0.00 0.00 26 1000.2
20260505011004 13 130 0.0 1.6 0.00 0.00 0.00 24 1000.0
20260505005004 14 2 3.2 9.7 0.00 0.00 0.00 23 1000.9
20260505004004 14 355 0.0 11.3 0.00 0.00 0.00 24 1000.9
20260505003004 15 321 0.0 4.8 0.00 0.00 0.00 24 1000.9
20260505002003 15 354 1.6 8.0 0.00 0.00 0.00 23 1000.9
20260505001004 15 3 0.0 9.7 0.00 0.00 0.00 22 1001.1
20260505000004 15 318 1.6 8.0 0.00 0.00 0.00 23 1001.1
20260504235003 15 286 9.7 12.9 0.00 0.00 0.00 23 1000.6
20260504234003 15 199 4.8 19.3 0.00 0.00 0.00 24 1000.7
20260504233003 15 194 3.2 19.3 0.00 0.00 0.00 24 1000.8
20260504232003 16 189 1.6 14.5 0.00 0.00 0.00 23 1000.0
20260504231002 15 175 1.6 12.9 0.00 0.00 0.00 24 1000.6
20260504230002 15 215 3.2 12.9 0.00 0.00 0.00 24 1000.5
20260504225003 15 144 0.0 11.3 0.00 0.00 0.00 25 1000.3
20260504224003 15 195 1.6 16.1 0.00 0.00 0.00 24 1000.6
20260504223002 15 199 1.6 19.3 0.00 0.00 0.00 24 1000.6
20260504222002 16 208 1.6 9.7 0.00 0.00 0.00 24 1000.0
20260504221003 16 230 3.2 19.3 0.00 0.00 0.00 24 1000.1
20260504220003 16 209 3.2 12.9 0.00 0.00 0.00 25 1000.1
20260504215003 16 165 1.6 11.3 0.00 0.00 0.00 25 999.3
20260504214002 16 192 0.0 12.9 0.00 0.00 0.00 28 999.4
20260504213002 16 62 0.0 9.7 0.00 0.00 0.00 28 1000.2
20260504212003 15 46 1.6 19.3 0.00 0.00 0.00 28 1000.2
20260504210003 16 7 3.2 16.1 0.00 0.00 0.00 27 1000.1
20260504205002 16 250 3.2 12.9 0.00 0.00 0.00 27 1000.8
20260504204003 16 19 1.6 12.9 0.00 0.00 0.00 29 1000.7
20260504203002 16 290 3.2 16.1 0.00 0.00 0.00 32 1001.0
20260504201003 16 9 1.6 4.8 0.00 0.00 0.00 33 1001.0
20260504200003 15 359 3.2 16.1 0.00 0.00 0.00 34 1001.5
20260504195002 15 19 1.6 4.8 0.00 0.00 0.00 34 1001.0
20260504194002 15 170 8.0 9.7 0.00 0.00 0.00 34 1001.1
20260504193003 15 197 1.6 16.1 0.00 0.00 0.00 35 1001.2
20260504191002 15 319 0.0 9.7 0.00 0.00 0.00 37 1000.9
20260504190003 15 254 0.0 11.3 0.00 0.00 0.00 38 1001.0
20260504185003 15 315 0.0 8.0 0.00 0.00 0.00 37 1000.9
20260504184003 15 4 0.0 9.7 0.00 0.00 0.00 38 1001.1
20260504183003 15 187 1.6 16.1 0.00 0.00 0.00 37 1001.0
20260504182002 15 350 0.0 11.3 0.00 0.00 0.00 40 1001.1
20260504180003 14 114 0.0 9.7 0.00 0.00 0.00 42 1001.9
20260504175003 13 350 1.6 9.7 0.00 0.00 0.00 42 1001.8
20260504172003 13 184 1.6 4.8 0.00 0.00 0.00 43 1002.3
20260504171003 13 200 0.0 4.8 0.00 0.00 0.00 44 1002.3